This is the latest recevied weather packets stored in our database for station/object WB0VGI-1. If no packets are shown the sender has not sent any weather packets the latest 10 day(s).
| Time | Temp. | Humidity | Pressure | Rain* | Wind** | Luminosity | Snow |
|---|---|---|---|---|---|---|---|
| 1778002025 | 7.78° C | 49% | 1014.6 hPa | 0 mm | - | - | - |
| 1778000825 | 7.22° C | 50% | 1014.8 hPa | 0 mm | - | - | - |
| 1777999625 | 7.78° C | 51% | 1014.8 hPa | 0 mm | - | - | - |
| 1777998425 | 6.67° C | 53% | 1014.9 hPa | 0 mm | - | - | - |
| 1777997225 | 6.11° C | 57% | 1015 hPa | 0 mm | - | - | - |
| 1777996025 | 5.56° C | 57% | 1014.9 hPa | 0 mm | - | - | - |
| 1777994825 | 6.11° C | 55% | 1014.7 hPa | 0 mm | - | - | - |
| 1777993625 | 5° C | 56% | 1014.7 hPa | 0 mm | - | - | - |
| 1777992425 | 5° C | 57% | 1014.7 hPa | 0 mm | - | - | - |
| 1777991225 | 4.44° C | 58% | 1014.6 hPa | 0 mm | - | - | - |
| 1777990025 | 4.44° C | 58% | 1014.4 hPa | 0 mm | - | - | - |
| 1777988825 | 4.44° C | 58% | 1014.1 hPa | 0 mm | - | - | - |
| 1777987625 | 3.33° C | 59% | 1014.1 hPa | 0 mm | - | - | - |
| 1777986426 | 2.78° C | 63% | 1014 hPa | 0 mm | - | - | - |
| 1777985226 | 2.22° C | 66% | 1013.9 hPa | 0 mm | - | - | - |
| 1777984026 | 1.67° C | 66% | 1013.7 hPa | 0 mm | - | - | - |
| 1777982826 | 1.67° C | 69% | 1013.5 hPa | 0 mm | - | - | - |
| 1777981626 | 1.11° C | 71% | 1013.3 hPa | 0 mm | - | - | - |
| 1777980426 | 1.11° C | 71% | 1013.1 hPa | 0 mm | - | - | - |
| 1777979226 | 1.11° C | 73% | 1012.9 hPa | 0 mm | - | - | - |
| 1777978026 | 1.11° C | 76% | 1012.7 hPa | 0 mm | - | - | - |
| 1777976826 | 1.67° C | 76% | 1012.5 hPa | 0 mm | - | - | - |
| 1777975626 | 1.67° C | 76% | 1012.4 hPa | 0 mm | - | - | - |
| 1777974426 | 2.22° C | 75% | 1012.3 hPa | 0 mm | - | - | - |
| 1777973226 | 2.78° C | 74% | 1012.1 hPa | 0 mm | - | - | - |
* Rain latest hour (hover to see other rain measurements)
** Current wind speed in m/s (hover to see current wind gust speed)